Weather History for VTBU - January, 2013

Change the Weather History Date:

Tuesday, January 29, 2013

  Actual Average Record
Temperature  
Mean Temperature 79 °F -  
Max Temperature 87 °F 87 °F 91 °F (2002)
Min Temperature 71 °F 71 °F 66 °F (2014)
Cooling Degree Days 14    
Growing Degree Days 29 (Base 50)    
Moisture  
Dew Point 70 °F    
Average Humidity 76    
Maximum Humidity 94    
Minimum Humidity 52    
Precipitation  
Precipitation 0.00 in - - ()
Sea Level Pressure  
Sea Level Pressure 29.92 in    
Wind  
Wind Speed 1 mph ()    
Max Wind Speed 9 mph    
Max Gust Speed -    
Visibility 1.6 miles    
Events Rain    
Averages and records for this station are not official NWS values.
T = Trace of Precipitation, MM = Missing Value Source: Averaged Metar Reports

Daily Weather History Graph

Daily Weather History Graph

Search for Another Location

Airport or City:

Trip Planner

Search our weather history database for the weather conditions in past years. The results will help you decide how hot, cold, wet, or windy it might be!

Date:

Astronomy

Jan. 29, 2013 Rise Set
Actual Time 6:42 AM ICT 6:16 PM ICT
Civil Twilight 6:19 AM ICT 6:38 PM ICT
Nautical Twilight 5:54 AM ICT 7:04 PM ICT
Astronomical Twilight 5:28 AM ICT 7:29 PM ICT
Moon 8:05 PM ICT (1/29) 7:51 AM ICT (1/29)
Length of Visible Light 12h 18m
Length of Day
11h 33m
Waning Gibbous, 96% of the Moon is Illuminated
Jan 29
Waning Gibbous
Feb 3
Last Quarter
Feb 10
New
Feb 18
First Quarter
Feb 26
Full

Hourly Weather History & Observations

Time (ICT) Temp. Heat Index Dew Point Humidity Pressure Visibility Wind Dir Wind Speed Gust Speed Precip Events Conditions
12:00 AM 73.4 °F - 69.8 °F 88% 29.92 in 1.2 mi Calm Calm - N/A   Mostly Cloudy
12:30 AM 73.4 °F - 69.8 °F 88% 29.92 in 1.2 mi Calm Calm - N/A   Mostly Cloudy
1:00 AM 73.4 °F - 69.8 °F 88% 29.92 in 1.2 mi Calm Calm - N/A   Mostly Cloudy
1:30 AM 73.4 °F - 69.8 °F 88% 29.92 in 1.2 mi Calm Calm - N/A   Mostly Cloudy
3:30 AM 71.6 °F - 69.8 °F 94% 29.89 in 1.2 mi Calm Calm - N/A   Mostly Cloudy
6:00 AM 71.6 °F - 69.8 °F 94% 29.92 in 1.2 mi Calm Calm - N/A   Mostly Cloudy
6:30 AM 71.6 °F - 68.0 °F 88% 29.92 in 0.9 mi Calm Calm - N/A   Mostly Cloudy
7:00 AM 71.6 °F - 68.0 °F 88% 29.92 in 0.9 mi Calm Calm - N/A   Mostly Cloudy
7:30 AM 71.6 °F - 69.8 °F 94% 29.92 in 1.2 mi Calm Calm - N/A   Mostly Cloudy
8:00 AM 71.6 °F - 69.8 °F 94% 29.92 in 0.9 mi Calm Calm - N/A   Mostly Cloudy
8:30 AM 73.4 °F - 68.0 °F 83% 29.95 in 0.9 mi Calm Calm - N/A   Mostly Cloudy
9:00 AM 77.0 °F - 68.0 °F 74% 29.95 in 1.2 mi Calm Calm - N/A   Mostly Cloudy
9:30 AM 78.8 °F - 66.2 °F 65% 29.95 in 1.2 mi Calm Calm - N/A   Mostly Cloudy
10:00 AM 80.6 °F 82.7 °F 66.2 °F 61% 29.95 in 1.9 mi North 3.5 mph - N/A   Haze
10:30 AM 80.6 °F 83.2 °F 68.0 °F 65% 29.95 in 1.9 mi Calm Calm - N/A   Mostly Cloudy
11:00 AM 80.6 °F 83.2 °F 68.0 °F 65% 29.95 in 1.9 mi Calm Calm - N/A   Haze
11:30 AM 82.4 °F 85.4 °F 68.0 °F 62% 29.95 in 1.9 mi Calm Calm - N/A   Haze
12:00 PM 84.2 °F 86.6 °F 66.2 °F 55% 29.92 in 1.9 mi Calm Calm - N/A   Haze
12:30 PM 86.0 °F 90.4 °F 69.8 °F 58% 29.92 in 1.9 mi Calm Calm - N/A   Haze
1:00 PM 86.0 °F 89.4 °F 68.0 °F 55% 29.89 in 1.9 mi Calm Calm - N/A   Haze
1:30 PM 87.8 °F 91.4 °F 68.0 °F 52% 29.89 in 1.9 mi Calm Calm - N/A   Haze
2:00 PM 87.8 °F 91.4 °F 68.0 °F 52% 29.89 in 1.9 mi SE 4.6 mph - N/A   Haze
3:00 PM 84.2 °F 88.4 °F 69.8 °F 62% 29.86 in 1.9 mi SW 6.9 mph - N/A   Haze
3:30 PM 86.0 °F 90.4 °F 69.8 °F 58% 29.86 in 1.9 mi SSW 9.2 mph - N/A   Haze
4:00 PM 84.2 °F 88.4 °F 69.8 °F 62% 29.86 in 1.9 mi SW 9.2 mph - N/A   Haze
4:30 PM 82.4 °F 86.3 °F 69.8 °F 66% 29.86 in 1.9 mi SW 4.6 mph - N/A   Haze
5:00 PM 82.4 °F 86.3 °F 69.8 °F 66% 29.89 in 1.9 mi SW 4.6 mph - N/A   Haze
5:30 PM 80.6 °F 83.9 °F 69.8 °F 70% 29.89 in 1.9 mi West 3.5 mph - N/A   Mostly Cloudy
6:00 PM 80.6 °F 84.6 °F 71.6 °F 74% 29.89 in 1.9 mi WSW 4.6 mph - N/A   Mostly Cloudy
6:30 PM 80.6 °F 84.6 °F 71.6 °F 74% 29.89 in 1.9 mi SW 4.6 mph - N/A   Mostly Cloudy
7:00 PM 80.6 °F 84.6 °F 71.6 °F 74% 29.92 in 1.9 mi East 3.5 mph - N/A   Mostly Cloudy
7:30 PM 77.0 °F - 71.6 °F 83% 29.92 in 1.2 mi NNE 4.6 mph - N/A Rain Light Rain Showers
8:00 PM 77.0 °F - 71.6 °F 83% 29.92 in 1.2 mi East 3.5 mph - N/A Rain Light Rain
8:30 PM 77.0 °F - 73.4 °F 89% 29.95 in 1.9 mi WSW 2.3 mph - N/A   Mostly Cloudy
9:00 PM 77.0 °F - 73.4 °F 89% 29.95 in 1.9 mi ENE 4.6 mph - N/A   Mostly Cloudy
9:30 PM 75.2 °F - 71.6 °F 89% 29.95 in 1.9 mi ENE 3.5 mph - N/A   Mostly Cloudy
10:00 PM 75.2 °F - 71.6 °F 89% 29.95 in 1.9 mi NNE 4.6 mph - N/A   Mostly Cloudy
10:30 PM 77.0 °F - 69.8 °F 78% 29.95 in 1.9 mi Calm Calm - N/A   Mostly Cloudy
11:00 PM 75.2 °F - 69.8 °F 83% 29.95 in 1.9 mi Calm Calm - N/A   Mostly Cloudy
11:30 PM 75.2 °F - 71.6 °F 89% 29.95 in 1.9 mi Calm Calm - N/A   Mostly Cloudy